• In Netherlands
  • List of Countries
  • For 7 days
  • Water Temperature
  • Satellite Maps
  • Weather Map
  • Weather Widgets
  • user-avatar
    Login

    Hourly Weather Linz

    Today, 24 September, Sunday

    Time Temperature Precipitation Wind Pressure Humidity
    00:00 +12°C° 0 mm 1 mps 736 mmHg 91%
    01:00 +12°C° 0 mm 1 mps 736 mmHg 92%
    02:00 +12°C° 0 mm 1 mps 736 mmHg 92%
    03:00 +11°C° 0 mm 1 mps 736 mmHg 93%
    04:00 +10°C° 0 mm 0 mps 736 mmHg 93%
    05:00 +11°C° 0.1 mm 0 mps 736 mmHg 93%
    06:00 +11°C° 0.1 mm 0 mps 736 mmHg 92%
    07:00 +12°C° 0 mm 0 mps 736 mmHg 90%
    08:00 +13°C° 0.2 mm 0 mps 736 mmHg 87%
    09:00 +15°C° 0.2 mm 1 mps 736 mmHg 84%
    10:00 +15°C° 0.2 mm 1 mps 737 mmHg 82%
    11:00 +16°C° 0.1 mm 1 mps 737 mmHg 77%
    12:00 +18°C° 0.1 mm 1 mps 736 mmHg 72%
    13:00 +19°C° 0 mm 1 mps 737 mmHg 67%
    14:00 +19°C° 0.1 mm 1 mps 737 mmHg 68%
    15:00 +17°C° 0.1 mm 0 mps 737 mmHg 69%
    16:00 +16°C° 0.1 mm 0 mps 736 mmHg 70%
    17:00 +15°C° 0 mm 0 mps 737 mmHg 76%
    18:00 +13°C° 0 mm 0 mps 737 mmHg 83%
    19:00 +12°C° 0 mm 0 mps 737 mmHg 89%
    20:00 +11°C° 0 mm 0 mps 737 mmHg 90%
    21:00 +12°C° 0 mm 1 mps 737 mmHg 91%
    22:00 +11°C° 0 mm 1 mps 737 mmHg 93%
    23:00 +11°C° 0 mm 1 mps 737 mmHg 93%

    Tomorrow, 25 September, Monday

    Time Temperature Precipitation Wind Pressure Humidity
    00:00 +10°C° 0 mm 1 mps 737 mmHg 94%
    01:00 +10°C° 0 mm 1 mps 737 mmHg 94%
    02:00 +10°C° 0 mm 1 mps 737 mmHg 94%
    03:00 +10°C° 0 mm 1 mps 737 mmHg 94%
    04:00 +10°C° 0 mm 1 mps 737 mmHg 93%
    05:00 +10°C° 0 mm 1 mps 737 mmHg 92%
    06:00 +10°C° 0 mm 1 mps 737 mmHg 91%
    07:00 +11°C° 0 mm 1 mps 737 mmHg 90%
    08:00 +13°C° 0 mm 1 mps 737 mmHg 84%
    09:00 +15°C° 0 mm 1 mps 737 mmHg 77%
    10:00 +18°C° 0 mm 1 mps 737 mmHg 70%
    11:00 +19°C° 0 mm 1 mps 736 mmHg 67%
    12:00 +19°C° 0 mm 1 mps 736 mmHg 63%
    13:00 +19°C° 0 mm 2 mps 736 mmHg 59%
    14:00 +19°C° 0 mm 2 mps 736 mmHg 61%
    15:00 +19°C° 0 mm 2 mps 736 mmHg 63%
    16:00 +19°C° 0 mm 2 mps 736 mmHg 65%
    17:00 +17°C° 0 mm 2 mps 736 mmHg 73%
    18:00 +15°C° 0 mm 2 mps 736 mmHg 81%
    19:00 +13°C° 0 mm 2 mps 736 mmHg 88%
    20:00 +13°C° 0 mm 2 mps 736 mmHg 89%
    21:00 +12°C° 0 mm 2 mps 737 mmHg 91%
    22:00 +12°C° 0 mm 2 mps 737 mmHg 92%
    23:00 +10°C° 0 mm 2 mps 737 mmHg 92%

    Day after tomorrow, 26 September, Tuesday

    Time Temperature Precipitation Wind Pressure Humidity
    00:00 +11°C° 0 mm 1 mps 737 mmHg 92%
    01:00 +11°C° 0 mm 1 mps 737 mmHg 93%
    02:00 +10°C° 0 mm 1 mps 737 mmHg 93%
    03:00 +10°C° 0 mm 1 mps 737 mmHg 93%
    04:00 +10°C° 0 mm 1 mps 737 mmHg 93%
    05:00 +10°C° 0 mm 1 mps 737 mmHg 92%
    06:00 +10°C° 0 mm 1 mps 737 mmHg 91%
    07:00 +11°C° 0 mm 1 mps 738 mmHg 90%
    08:00 +13°C° 0 mm 1 mps 738 mmHg 81%
    09:00 +15°C° 0 mm 1 mps 738 mmHg 72%
    10:00 +18°C° 0 mm 2 mps 738 mmHg 64%
    11:00 +19°C° 0 mm 2 mps 738 mmHg 61%
    12:00 +20°C° 0 mm 2 mps 738 mmHg 59%
    13:00 +21°C° 0 mm 3 mps 737 mmHg 56%
    14:00 +21°C° 0.1 mm 3 mps 737 mmHg 60%
    15:00 +20°C° 0.1 mm 2 mps 737 mmHg 63%
    16:00 +20°C° 0.1 mm 2 mps 737 mmHg 67%
    17:00 +18°C° 0 mm 2 mps 738 mmHg 73%
    18:00 +16°C° 0 mm 2 mps 738 mmHg 80%
    19:00 +14°C° 0 mm 2 mps 738 mmHg 86%
    20:00 +14°C° 0 mm 2 mps 738 mmHg 88%
    21:00 +13°C° 0 mm 2 mps 739 mmHg 89%
    22:00 +13°C° 0 mm 2 mps 739 mmHg 90%
    23:00 +12°C° 0 mm 2 mps 739 mmHg 91%

    27 September, Wednesday

    Time Temperature Precipitation Wind Pressure Humidity
    00:00 +12°C° 0 mm 1 mps 739 mmHg 91%
    01:00 +12°C° 0 mm 1 mps 739 mmHg 91%
    02:00 +11°C° 0 mm 1 mps 739 mmHg 91%
    03:00 +11°C° 0 mm 1 mps 739 mmHg 91%
    04:00 +11°C° 0 mm 1 mps 739 mmHg 92%
    05:00 +11°C° 0 mm 1 mps 739 mmHg 91%
    06:00 +12°C° 0 mm 1 mps 739 mmHg 90%
    07:00 +12°C° 0 mm 1 mps 740 mmHg 89%
    08:00 +14°C° 0 mm 1 mps 740 mmHg 80%
    09:00 +18°C° 0 mm 1 mps 740 mmHg 72%
    10:00 +20°C° 0 mm 1 mps 740 mmHg 64%
    11:00 +20°C° 0 mm 2 mps 740 mmHg 61%
    12:00 +21°C° 0 mm 2 mps 739 mmHg 57%
    13:00 +22°C° 0 mm 3 mps 739 mmHg 54%
    14:00 +22°C° 0 mm 3 mps 739 mmHg 57%
    15:00 +22°C° 0 mm 3 mps 739 mmHg 60%
    16:00 +21°C° 0 mm 3 mps 739 mmHg 63%
    17:00 +19°C° 0 mm 3 mps 739 mmHg 70%
    18:00 +17°C° 0 mm 2 mps 739 mmHg 77%
    19:00 +15°C° 0 mm 2 mps 739 mmHg 83%
    20:00 +15°C° 0 mm 2 mps 739 mmHg 85%
    21:00 +14°C° 0 mm 2 mps 740 mmHg 87%
    22:00 +14°C° 0 mm 2 mps 740 mmHg 89%
    23:00 +13°C° 0 mm 2 mps 740 mmHg 90%

    28 September, Thursday

    Time Temperature Precipitation Wind Pressure Humidity
    00:00 +13°C° 0 mm 1 mps 740 mmHg 91%
    01:00 +13°C° 0 mm 1 mps 740 mmHg 92%
    02:00 +12°C° 0 mm 1 mps 740 mmHg 92%
    03:00 +12°C° 0 mm 1 mps 740 mmHg 92%
    04:00 +12°C° 0 mm 1 mps 739 mmHg 92%
    05:00 +12°C° 0 mm 1 mps 740 mmHg 91%
    06:00 +12°C° 0 mm 1 mps 740 mmHg 90%
    07:00 +12°C° 0 mm 1 mps 740 mmHg 89%
    08:00 +15°C° 0 mm 1 mps 740 mmHg 80%
    09:00 +18°C° 0 mm 1 mps 740 mmHg 71%
    10:00 +20°C° 0 mm 1 mps 740 mmHg 62%
    11:00 +21°C° 0 mm 1 mps 740 mmHg 59%
    12:00 +21°C° 0 mm 2 mps 739 mmHg 56%
    13:00 +23°C° 0 mm 2 mps 739 mmHg 53%
    14:00 +23°C° 0 mm 2 mps 739 mmHg 56%
    15:00 +21°C° 0 mm 2 mps 739 mmHg 59%
    16:00 +21°C° 0 mm 2 mps 739 mmHg 61%
    17:00 +19°C° 0 mm 2 mps 739 mmHg 68%
    18:00 +17°C° 0 mm 2 mps 739 mmHg 74%
    19:00 +15°C° 0 mm 1 mps 739 mmHg 80%
    20:00 +14°C° 0 mm 1 mps 739 mmHg 82%
    21:00 +13°C° 0 mm 1 mps 740 mmHg 84%
    22:00 +13°C° 0 mm 1 mps 740 mmHg 86%
    23:00 +12°C° 0 mm 1 mps 740 mmHg 86%

    29 September, Friday

    Time Temperature Precipitation Wind Pressure Humidity
    00:00 +12°C° 0 mm 1 mps 740 mmHg 87%
    01:00 +11°C° 0 mm 1 mps 740 mmHg 88%
    02:00 +11°C° 0 mm 1 mps 740 mmHg 88%
    03:00 +11°C° 0 mm 1 mps 739 mmHg 89%
    04:00 +11°C° 0 mm 1 mps 739 mmHg 89%
    05:00 +11°C° 0 mm 1 mps 740 mmHg 88%
    06:00 +11°C° 0 mm 1 mps 740 mmHg 87%
    07:00 +11°C° 0 mm 1 mps 740 mmHg 85%
    08:00 +14°C° 0 mm 1 mps 740 mmHg 77%
    09:00 +16°C° 0 mm 1 mps 739 mmHg 69%
    10:00 +19°C° 0 mm 1 mps 739 mmHg 60%
    11:00 +19°C° 0 mm 2 mps 739 mmHg 58%
    12:00 +20°C° 0 mm 2 mps 738 mmHg 55%
    13:00 +21°C° 0 mm 2 mps 738 mmHg 53%
    14:00 +21°C° 0 mm 2 mps 738 mmHg 56%
    15:00 +20°C° 0 mm 2 mps 738 mmHg 58%
    16:00 +20°C° 0 mm 2 mps 737 mmHg 61%
    17:00 +18°C° 0 mm 2 mps 737 mmHg 66%
    18:00 +16°C° 0 mm 2 mps 737 mmHg 72%
    19:00 +14°C° 0 mm 2 mps 737 mmHg 78%
    20:00 +13°C° 0 mm 2 mps 737 mmHg 79%
    21:00 +13°C° 0 mm 2 mps 738 mmHg 80%
    22:00 +12°C° 0 mm 2 mps 738 mmHg 81%
    23:00 +12°C° 0 mm 2 mps 738 mmHg 82%
    Show more